Time,TemperatureF,DewpointF,PressureIn,WindDirection,WindDirectionDegrees,WindSpeedMPH,WindSpeedGustMPH,Humidity,HourlyPrecipIn,Conditions,Clouds,dailyrainin,SolarRadiationWatts/m^2,SoftwareType,DateUTC
2013-09-11 00:00:00,70.7,68.6,30.13,SW,219,1.0,1.0,93,0.00,,,0.05,0,Wunderground v.1.15,2013-09-11 04:00:00,
2013-09-11 00:05:00,70.8,68.7,30.13,SSW,211,1.0,2.0,93,0.00,,,0.00,0,Wunderground v.1.15,2013-09-11 04:05:00,
2013-09-11 00:10:00,70.8,68.7,30.13,SSW,208,1.0,3.0,93,0.00,,,0.00,0,Wunderground v.1.15,2013-09-11 04:10:00,
2013-09-11 00:20:00,70.9,68.8,30.13,SSW,206,1.0,1.0,93,0.00,,,0.00,0,Wunderground v.1.15,2013-09-11 04:20:00,
2013-09-11 00:25:00,70.9,68.8,30.13,SSW,209,1.0,1.0,93,0.00,,,0.00,0,Wunderground v.1.15,2013-09-11 04:25:00,
2013-09-11 00:30:00,70.9,68.8,30.13,SW,225,1.0,1.0,93,0.00,,,0.00,0,Wunderground v.1.15,2013-09-11 04:30:00,
2013-09-11 00:35:00,71.0,68.9,30.13,WSW,248,1.0,1.0,93,0.00,,,0.00,0,Wunderground v.1.15,2013-09-11 04:35:00,
2013-09-11 00:40:00,71.0,68.6,30.13,West,261,2.0,2.0,92,0.00,,,0.00,0,Wunderground v.1.15,2013-09-11 04:40:00,
2013-09-11 00:50:00,71.1,68.7,30.13,WSW,240,2.0,2.0,92,0.00,,,0.00,0,Wunderground v.1.15,2013-09-11 04:50:00,
2013-09-11 01:00:00,71.2,68.8,30.13,South,171,1.0,1.0,92,0.00,,,0.00,0,Wunderground v.1.15,2013-09-11 05:00:00,
2013-09-11 01:09:00,71.2,68.8,30.12,West,267,1.0,2.0,92,0.00,,,0.00,0,Wunderground v.1.15,2013-09-11 05:09:00,
2013-09-11 01:15:00,71.2,68.8,30.12,WSW,258,1.0,2.0,92,0.00,,,0.00,0,Wunderground v.1.15,2013-09-11 05:15:00,
2013-09-11 01:20:00,71.2,68.8,30.12,SSW,204,1.0,1.0,92,0.00,,,0.00,0,Wunderground v.1.15,2013-09-11 05:20:00,
2013-09-11 01:30:00,71.2,68.8,30.12,SSE,164,1.0,2.0,92,0.00,,,0.00,0,Wunderground v.1.15,2013-09-11 05:30:00,
2013-09-11 01:40:00,71.2,68.8,30.12,SSE,167,1.0,1.0,92,0.00,,,0.00,0,Wunderground v.1.15,2013-09-11 05:40:00,
2013-09-11 01:45:00,71.2,68.8,30.12,West,269,1.0,1.0,92,0.00,,,0.00,0,Wunderground v.1.15,2013-09-11 05:45:00,
2013-09-11 01:50:00,71.2,68.8,30.12,WNW,284,1.0,1.0,92,0.00,,,0.00,0,Wunderground v.1.15,2013-09-11 05:50:00,
2013-09-11 02:00:00,71.2,68.8,30.11,South,169,1.0,1.0,92,0.00,,,0.00,0,Wunderground v.1.15,2013-09-11 06:00:00,
2013-09-11 02:05:00,71.2,68.8,30.11,WSW,238,1.0,1.0,92,0.00,,,0.00,0,Wunderground v.1.15,2013-09-11 06:05:00,
2013-09-11 02:15:00,71.3,68.9,30.11,South,173,0.0,1.0,92,0.00,,,0.00,0,Wunderground v.1.15,2013-09-11 06:15:00,
2013-09-11 02:25:00,71.3,68.9,30.11,SSW,209,0.0,2.0,92,0.00,,,0.00,0,Wunderground v.1.15,2013-09-11 06:25:00,
2013-09-11 02:30:00,71.3,68.9,30.10,SSW,211,0.0,0.0,92,0.00,,,0.00,0,Wunderground v.1.15,2013-09-11 06:30:00,
2013-09-11 02:40:00,71.3,68.9,30.10,South,171,0.0,1.0,92,0.00,,,0.00,0,Wunderground v.1.15,2013-09-11 06:40:00,
2013-09-11 02:45:00,71.3,68.9,30.10,SSW,199,0.0,1.0,92,0.00,,,0.00,0,Wunderground v.1.15,2013-09-11 06:45:00,
2013-09-11 02:55:00,71.3,68.9,30.10,SSE,149,0.0,1.0,92,0.00,,,0.00,0,Wunderground v.1.15,2013-09-11 06:55:00,
2013-09-11 03:00:00,71.3,68.9,30.10,SSE,150,0.0,0.0,92,0.00,,,0.00,0,Wunderground v.1.15,2013-09-11 07:00:00,
2013-09-11 03:05:00,71.3,68.9,30.10,SW,221,0.0,0.0,92,0.00,,,0.00,0,Wunderground v.1.15,2013-09-11 07:05:00,
2013-09-11 03:15:00,71.3,68.9,30.10,South,184,0.0,0.0,92,0.00,,,0.00,0,Wunderground v.1.15,2013-09-11 07:15:00,
2013-09-11 03:25:00,71.2,68.8,30.10,South,177,0.0,0.0,92,0.00,,,0.00,0,Wunderground v.1.15,2013-09-11 07:25:00,
2013-09-11 03:35:00,71.3,68.9,30.09,South,180,0.0,1.0,92,0.00,,,0.00,0,Wunderground v.1.15,2013-09-11 07:35:00,
2013-09-11 03:45:00,71.3,68.9,30.09,WNW,285,0.0,0.0,92,0.00,,,0.00,0,Wunderground v.1.15,2013-09-11 07:45:00,
2013-09-11 03:50:00,71.3,68.9,30.09,SSW,211,0.0,0.0,92,0.00,,,0.00,0,Wunderground v.1.15,2013-09-11 07:50:00,
2013-09-11 04:00:00,71.3,68.9,30.09,South,174,0.0,0.0,92,0.00,,,0.00,0,Wunderground v.1.15,2013-09-11 08:00:00,
2013-09-11 04:05:00,71.3,68.9,30.09,South,173,0.0,0.0,92,0.00,,,0.00,0,Wunderground v.1.15,2013-09-11 08:05:00,
2013-09-11 04:15:00,71.2,68.8,30.09,SSE,159,0.0,0.0,92,0.00,,,0.00,0,Wunderground v.1.15,2013-09-11 08:15:00,
2013-09-11 04:20:00,71.1,68.7,30.09,SSW,206,0.0,0.0,92,0.00,,,0.00,0,Wunderground v.1.15,2013-09-11 08:20:00,
2013-09-11 04:30:00,71.0,68.6,30.09,South,180,0.0,0.0,92,0.00,,,0.00,0,Wunderground v.1.15,2013-09-11 08:30:00,
2013-09-11 04:35:00,70.9,68.5,30.09,South,189,0.0,0.0,92,0.00,,,0.00,0,Wunderground v.1.15,2013-09-11 08:35:00,
2013-09-11 04:45:00,70.8,68.4,30.09,South,170,0.0,0.0,92,0.00,,,0.00,0,Wunderground v.1.15,2013-09-11 08:45:00,
2013-09-11 04:50:00,70.7,68.3,30.09,South,175,0.0,0.0,92,0.00,,,0.00,0,Wunderground v.1.15,2013-09-11 08:50:00,
2013-09-11 05:00:00,70.7,68.3,30.09,SSW,196,0.0,0.0,92,0.00,,,0.00,0,Wunderground v.1.15,2013-09-11 09:00:00,
2013-09-11 05:10:00,70.7,68.6,30.09,SSW,195,0.0,0.0,93,0.00,,,0.00,0,Wunderground v.1.15,2013-09-11 09:10:00,
2013-09-11 05:15:00,70.7,68.6,30.10,SSW,192,0.0,0.0,93,0.00,,,0.00,0,Wunderground v.1.15,2013-09-11 09:15:00,
2013-09-11 05:20:00,70.7,68.6,30.10,SSW,193,0.0,0.0,93,0.00,,,0.00,0,Wunderground v.1.15,2013-09-11 09:20:00,
2013-09-11 05:30:00,70.7,68.6,30.10,South,173,0.0,1.0,93,0.00,,,0.00,0,Wunderground v.1.15,2013-09-11 09:30:00,
2013-09-11 05:40:00,70.7,68.6,30.11,South,173,0.0,0.0,93,0.00,,,0.00,0,Wunderground v.1.15,2013-09-11 09:40:00,
2013-09-11 05:50:00,70.8,68.7,30.11,SE,138,0.0,0.0,93,0.00,,,0.00,0,Wunderground v.1.15,2013-09-11 09:50:00,
2013-09-11 06:00:00,70.8,68.7,30.11,South,180,1.0,1.0,93,0.00,,,0.00,0,Wunderground v.1.15,2013-09-11 10:00:00,
2013-09-11 06:10:00,70.7,68.6,30.12,South,184,0.0,2.0,93,0.00,,,0.00,0,Wunderground v.1.15,2013-09-11 10:10:00,
2013-09-11 06:20:00,70.6,68.5,30.12,South,188,1.0,1.0,93,0.00,,,0.00,0,Wunderground v.1.15,2013-09-11 10:20:00,
2013-09-11 06:25:00,70.5,68.4,30.12,South,183,0.0,2.0,93,0.00,,,0.00,0,Wunderground v.1.15,2013-09-11 10:25:00,
2013-09-11 06:35:00,70.5,68.4,30.12,South,180,1.0,1.0,93,0.00,,,0.00,0,Wunderground v.1.15,2013-09-11 10:35:00,
2013-09-11 06:40:00,70.5,68.4,30.12,South,187,1.0,1.0,93,0.00,,,0.00,5,Wunderground v.1.15,2013-09-11 10:40:00,
2013-09-11 06:45:00,70.5,68.4,30.13,South,178,1.0,1.0,93,0.00,,,0.00,7,Wunderground v.1.15,2013-09-11 10:45:00,
2013-09-11 06:55:00,70.4,68.3,30.13,South,180,0.0,0.0,93,0.00,,,0.00,11,Wunderground v.1.15,2013-09-11 10:55:00,
2013-09-11 07:00:00,70.4,68.3,30.13,SSW,210,0.0,0.0,93,0.00,,,0.00,12,Wunderground v.1.15,2013-09-11 11:00:00,
2013-09-11 07:10:00,70.4,68.3,30.13,South,188,0.0,0.0,93,0.00,,,0.00,19,Wunderground v.1.15,2013-09-11 11:10:00,
2013-09-11 07:20:00,70.4,68.3,30.13,SSW,196,0.0,0.0,93,0.00,,,0.00,26,Wunderground v.1.15,2013-09-11 11:20:00,
2013-09-11 07:30:00,70.6,68.5,30.13,SSE,161,1.0,1.0,93,0.00,,,0.00,28,Wunderground v.1.15,2013-09-11 11:30:00,
2013-09-11 07:35:00,70.6,68.5,30.13,SSW,213,1.0,1.0,93,0.00,,,0.00,32,Wunderground v.1.15,2013-09-11 11:35:00,
2013-09-11 07:45:00,70.9,68.8,30.13,SSE,167,1.0,1.0,93,0.00,,,0.00,37,Wunderground v.1.15,2013-09-11 11:45:00,
2013-09-11 07:55:00,71.1,69.0,30.13,South,178,1.0,1.0,93,0.00,,,0.00,37,Wunderground v.1.15,2013-09-11 11:55:00,
2013-09-11 08:00:00,71.2,69.1,30.14,South,176,1.0,1.0,93,0.00,,,0.00,39,Wunderground v.1.15,2013-09-11 12:00:00,
2013-09-11 08:10:00,71.4,69.3,30.13,SSE,165,1.0,1.0,93,0.00,,,0.00,47,Wunderground v.1.15,2013-09-11 12:10:00,
2013-09-11 08:20:00,71.8,69.7,30.13,South,186,0.0,0.0,93,0.00,,,0.00,53,Wunderground v.1.15,2013-09-11 12:20:00,
2013-09-11 08:30:00,72.3,70.2,30.13,South,173,1.0,1.0,93,0.00,,,0.00,56,Wunderground v.1.15,2013-09-11 12:30:00,
2013-09-11 08:40:00,72.9,70.4,30.13,SE,138,1.0,1.0,92,0.00,,,0.00,65,Wunderground v.1.15,2013-09-11 12:40:00,
2013-09-11 08:50:00,73.7,71.2,30.13,South,173,0.0,0.0,92,0.00,,,0.00,63,Wunderground v.1.15,2013-09-11 12:50:00,
2013-09-11 08:55:00,74.1,71.6,30.13,South,171,1.0,1.0,92,0.00,,,0.00,65,Wunderground v.1.15,2013-09-11 12:55:00,
2013-09-11 09:05:00,74.8,72.0,30.12,WNW,293,0.0,0.0,91,0.00,,,0.00,69,Wunderground v.1.15,2013-09-11 13:05:00,
2013-09-11 09:15:00,75.5,72.7,30.12,WNW,288,0.0,1.0,91,0.00,,,0.00,70,Wunderground v.1.15,2013-09-11 13:15:00,
2013-09-11 09:20:00,76.0,72.9,30.13,South,173,0.0,0.0,90,0.00,,,0.00,72,Wunderground v.1.15,2013-09-11 13:20:00,
2013-09-11 09:25:00,76.3,72.8,30.13,South,180,0.0,0.0,89,0.00,,,0.00,76,Wunderground v.1.15,2013-09-11 13:25:00,
2013-09-11 09:35:00,76.6,72.1,30.12,South,185,0.0,0.0,86,0.00,,,0.00,104,Wunderground v.1.15,2013-09-11 13:35:00,
2013-09-11 09:40:00,76.7,72.2,30.12,South,177,0.0,4.0,86,0.00,,,0.00,77,Wunderground v.1.15,2013-09-11 13:40:00,
2013-09-11 09:50:00,76.6,71.7,30.12,SSW,199,1.0,1.0,85,0.00,,,0.00,84,Wunderground v.1.15,2013-09-11 13:50:00,
2013-09-11 09:55:00,76.5,71.7,30.13,SW,224,1.0,1.0,85,0.00,,,0.00,172,Wunderground v.1.15,2013-09-11 13:55:00,
2013-09-11 10:05:00,76.5,72.0,30.12,SW,219,0.0,1.0,86,0.00,,,0.00,121,Wunderground v.1.15,2013-09-11 14:05:00,
2013-09-11 10:15:00,76.6,71.7,30.13,SW,227,1.0,1.0,85,0.00,,,0.00,105,Wunderground v.1.15,2013-09-11 14:15:00,
2013-09-11 10:20:00,76.6,71.7,30.12,South,190,1.0,1.0,85,0.00,,,0.00,490,Wunderground v.1.15,2013-09-11 14:20:00,
2013-09-11 10:30:00,76.6,71.7,30.12,South,185,1.0,1.0,85,0.00,,,0.00,485,Wunderground v.1.15,2013-09-11 14:30:00,
2013-09-11 10:35:00,76.7,71.8,30.12,SW,223,1.0,2.0,85,0.00,,,0.00,137,Wunderground v.1.15,2013-09-11 14:35:00,
2013-09-11 10:40:00,76.8,71.9,30.12,South,184,1.0,2.0,85,0.00,,,0.00,107,Wunderground v.1.15,2013-09-11 14:40:00,
2013-09-11 10:50:00,77.4,72.5,30.12,South,178,1.0,3.0,85,0.00,,,0.00,114,Wunderground v.1.15,2013-09-11 14:50:00,
2013-09-11 11:00:00,77.8,72.2,30.12,South,176,1.0,1.0,83,0.00,,,0.00,141,Wunderground v.1.15,2013-09-11 15:00:00,
2013-09-11 11:10:00,78.1,72.2,30.11,South,186,1.0,1.0,82,0.00,,,0.00,197,Wunderground v.1.15,2013-09-11 15:10:00,
2013-09-11 11:20:00,78.3,72.3,30.11,South,184,1.0,1.0,82,0.00,,,0.00,628,Wunderground v.1.15,2013-09-11 15:20:00,
2013-09-11 11:25:00,78.4,72.4,30.11,WSW,242,1.0,1.0,82,0.00,,,0.00,638,Wunderground v.1.15,2013-09-11 15:25:00,
2013-09-11 11:35:00,78.8,72.5,30.11,South,175,2.0,3.0,81,0.00,,,0.00,652,Wunderground v.1.15,2013-09-11 15:35:00,
2013-09-11 11:45:00,79.3,73.0,30.11,South,188,1.0,2.0,81,0.00,,,0.00,668,Wunderground v.1.15,2013-09-11 15:45:00,
2013-09-11 11:50:00,79.6,72.9,30.11,SSW,211,1.0,1.0,80,0.00,,,0.00,673,Wunderground v.1.15,2013-09-11 15:50:00,
2013-09-11 12:00:00,80.2,73.1,30.11,SSE,163,1.0,1.0,79,0.00,,,0.00,686,Wunderground v.1.15,2013-09-11 16:00:00,
2013-09-11 12:10:00,80.3,72.8,30.11,West,264,1.0,1.0,78,0.00,,,0.00,693,Wunderground v.1.15,2013-09-11 16:10:00,
2013-09-11 12:15:00,80.1,72.6,30.11,South,178,2.0,5.0,78,0.00,,,0.00,700,Wunderground v.1.15,2013-09-11 16:15:00,
2013-09-11 12:20:00,80.1,72.6,30.11,South,185,2.0,2.0,78,0.00,,,0.00,703,Wunderground v.1.15,2013-09-11 16:20:00,
2013-09-11 12:30:00,80.2,72.7,30.11,South,171,1.0,1.0,78,0.00,,,0.00,712,Wunderground v.1.15,2013-09-11 16:30:00,
2013-09-11 12:40:00,80.4,73.3,30.11,West,265,1.0,1.0,79,0.00,,,0.00,721,Wunderground v.1.15,2013-09-11 16:40:00,
2013-09-11 12:45:00,80.5,72.6,30.11,South,184,1.0,2.0,77,0.00,,,0.00,722,Wunderground v.1.15,2013-09-11 16:45:00,
2013-09-11 12:50:00,80.3,72.8,30.10,SW,222,2.0,4.0,78,0.00,,,0.00,724,Wunderground v.1.15,2013-09-11 16:50:00,
2013-09-11 13:00:00,79.9,72.4,30.10,South,180,2.0,2.0,78,0.00,,,0.00,728,Wunderground v.1.15,2013-09-11 17:00:00,
2013-09-11 13:10:00,79.8,72.3,30.10,SE,132,2.0,2.0,78,0.00,,,0.00,729,Wunderground v.1.15,2013-09-11 17:10:00,
2013-09-11 13:20:00,80.2,72.7,30.09,West,278,2.0,2.0,78,0.00,,,0.00,731,Wunderground v.1.15,2013-09-11 17:20:00,
2013-09-11 13:30:00,80.5,72.6,30.09,South,186,2.0,3.0,77,0.00,,,0.00,731,Wunderground v.1.15,2013-09-11 17:30:00,
2013-09-11 13:40:00,80.6,72.7,30.09,South,183,2.0,2.0,77,0.00,,,0.00,724,Wunderground v.1.15,2013-09-11 17:40:00,
2013-09-11 13:45:00,80.6,72.7,30.09,SSW,196,2.0,2.0,77,0.00,,,0.00,722,Wunderground v.1.15,2013-09-11 17:45:00,
2013-09-11 13:55:00,81.0,73.1,30.09,SSW,198,1.0,2.0,77,0.00,,,0.00,714,Wunderground v.1.15,2013-09-11 17:55:00,
2013-09-11 14:00:00,81.1,73.2,30.08,South,186,1.0,3.0,77,0.00,,,0.00,712,Wunderground v.1.15,2013-09-11 18:00:00,
2013-09-11 14:10:00,81.7,73.4,30.08,SSW,204,1.0,2.0,76,0.00,,,0.00,703,Wunderground v.1.15,2013-09-11 18:10:00,
2013-09-11 14:15:00,81.9,73.6,30.08,South,172,1.0,2.0,76,0.00,,,0.00,698,Wunderground v.1.15,2013-09-11 18:15:00,
2013-09-11 14:25:00,82.0,72.9,30.08,South,188,2.0,3.0,74,0.00,,,0.00,686,Wunderground v.1.15,2013-09-11 18:25:00,
2013-09-11 14:30:00,81.7,73.0,30.07,South,172,2.0,2.0,75,0.00,,,0.00,680,Wunderground v.1.15,2013-09-11 18:30:00,
2013-09-11 14:40:00,81.3,73.0,30.08,SSE,151,2.0,2.0,76,0.00,,,0.00,661,Wunderground v.1.15,2013-09-11 18:40:00,
2013-09-11 14:49:00,81.0,72.7,30.07,South,169,2.0,2.0,76,0.00,,,0.00,645,Wunderground v.1.15,2013-09-11 18:49:00,
2013-09-11 14:55:00,80.9,72.6,30.07,South,175,2.0,2.0,76,0.00,,,0.00,636,Wunderground v.1.15,2013-09-11 18:55:00,
2013-09-11 15:00:00,80.8,72.5,30.08,South,174,2.0,2.0,76,0.00,,,0.00,629,Wunderground v.1.15,2013-09-11 19:00:00,
2013-09-11 15:10:00,80.8,72.5,30.07,South,185,1.0,1.0,76,0.00,,,0.00,605,Wunderground v.1.15,2013-09-11 19:10:00,
2013-09-11 15:20:00,80.9,72.6,30.07,WSW,248,1.0,1.0,76,0.00,,,0.00,587,Wunderground v.1.15,2013-09-11 19:20:00,
2013-09-11 15:25:00,81.0,72.7,30.07,WSW,244,1.0,1.0,76,0.00,,,0.00,577,Wunderground v.1.15,2013-09-11 19:25:00,
2013-09-11 15:30:00,81.1,72.8,30.07,SSW,210,1.0,3.0,76,0.00,,,0.00,566,Wunderground v.1.15,2013-09-11 19:30:00,
2013-09-11 15:35:00,81.2,72.9,30.07,South,175,1.0,3.0,76,0.00,,,0.00,557,Wunderground v.1.15,2013-09-11 19:35:00,
2013-09-11 15:40:00,81.3,73.0,30.06,SW,234,1.0,2.0,76,0.00,,,0.00,545,Wunderground v.1.15,2013-09-11 19:40:00,
2013-09-11 15:50:00,81.3,73.0,30.06,South,178,2.0,2.0,76,0.00,,,0.00,517,Wunderground v.1.15,2013-09-11 19:50:00,
2013-09-11 16:00:00,81.1,72.4,30.06,SSE,161,1.0,1.0,75,0.00,,,0.00,485,Wunderground v.1.15,2013-09-11 20:00:00,
2013-09-11 16:05:00,80.9,72.6,30.06,SW,236,1.0,3.0,76,0.00,,,0.00,471,Wunderground v.1.15,2013-09-11 20:05:00,
2013-09-11 16:15:00,80.7,72.4,30.06,SSE,167,1.0,3.0,76,0.00,,,0.00,443,Wunderground v.1.15,2013-09-11 20:15:00,
2013-09-11 16:20:00,80.5,72.2,30.06,SSE,160,1.0,1.0,76,0.00,,,0.00,431,Wunderground v.1.15,2013-09-11 20:20:00,
2013-09-11 16:25:00,80.3,72.4,30.05,SSW,197,1.0,1.0,77,0.00,,,0.00,221,Wunderground v.1.15,2013-09-11 20:25:00,
2013-09-11 16:35:00,79.7,72.2,30.05,SSE,158,2.0,2.0,78,0.00,,,0.00,123,Wunderground v.1.15,2013-09-11 20:35:00,
2013-09-11 16:40:00,79.3,72.2,30.05,SSW,205,1.0,1.0,79,0.00,,,0.00,125,Wunderground v.1.15,2013-09-11 20:40:00,
2013-09-11 16:50:00,78.6,71.9,30.05,SSW,209,1.0,1.0,80,0.00,,,0.00,100,Wunderground v.1.15,2013-09-11 20:50:00,
2013-09-11 16:55:00,78.3,72.0,30.05,South,173,1.0,1.0,81,0.00,,,0.00,98,Wunderground v.1.15,2013-09-11 20:55:00,
2013-09-11 17:05:00,77.7,71.8,30.05,South,184,1.0,4.0,82,0.00,,,0.00,90,Wunderground v.1.15,2013-09-11 21:05:00,
2013-09-11 17:15:00,77.3,71.4,30.04,SE,142,1.0,1.0,82,0.00,,,0.00,97,Wunderground v.1.15,2013-09-11 21:15:00,
2013-09-11 17:25:00,77.0,71.4,30.04,South,184,1.0,1.0,83,0.00,,,0.00,195,Wunderground v.1.15,2013-09-11 21:25:00,
2013-09-11 17:30:00,76.9,71.3,30.04,South,171,1.0,1.0,83,0.00,,,0.00,72,Wunderground v.1.15,2013-09-11 21:30:00,
2013-09-11 17:35:00,76.6,71.0,30.04,South,189,1.0,1.0,83,0.00,,,0.00,62,Wunderground v.1.15,2013-09-11 21:35:00,
2013-09-11 17:45:00,76.1,70.9,30.04,South,177,1.0,1.0,84,0.00,,,0.00,100,Wunderground v.1.15,2013-09-11 21:45:00,
2013-09-11 17:55:00,75.8,71.0,30.03,SSW,200,0.0,0.0,85,0.00,,,0.00,53,Wunderground v.1.15,2013-09-11 21:55:00,
2013-09-11 18:00:00,75.6,70.8,30.03,SW,224,0.0,0.0,85,0.00,,,0.00,51,Wunderground v.1.15,2013-09-11 22:00:00,
2013-09-11 18:10:00,75.3,70.5,30.03,SSW,209,0.0,0.0,85,0.00,,,0.00,35,Wunderground v.1.15,2013-09-11 22:10:00,
2013-09-11 18:20:00,75.1,70.6,30.04,South,180,0.0,0.0,86,0.00,,,0.00,28,Wunderground v.1.15,2013-09-11 22:20:00,
2013-09-11 18:30:00,74.7,70.6,30.04,SSW,204,1.0,1.0,87,0.00,,,0.00,21,Wunderground v.1.15,2013-09-11 22:30:00,
2013-09-11 18:40:00,74.5,70.4,30.04,SSW,202,1.0,1.0,87,0.00,,,0.00,9,Wunderground v.1.15,2013-09-11 22:40:00,
2013-09-11 18:50:00,74.3,70.5,30.05,SSW,203,0.0,2.0,88,0.00,,,0.00,0,Wunderground v.1.15,2013-09-11 22:50:00,
2013-09-11 19:00:00,74.1,70.3,30.05,WSW,244,0.0,0.0,88,0.00,,,0.00,0,Wunderground v.1.15,2013-09-11 23:00:00,
2013-09-11 19:10:00,74.0,70.2,30.06,South,169,0.0,2.0,88,0.00,,,0.00,0,Wunderground v.1.15,2013-09-11 23:10:00,
2013-09-11 19:20:00,73.9,70.1,30.06,South,186,0.0,0.0,88,0.00,,,0.00,0,Wunderground v.1.15,2013-09-11 23:20:00,
2013-09-11 19:30:00,73.8,70.0,30.07,SSW,200,0.0,0.0,88,0.00,,,0.00,0,Wunderground v.1.15,2013-09-11 23:30:00,
2013-09-11 19:35:00,73.7,69.9,30.07,South,182,0.0,0.0,88,0.00,,,0.00,0,Wunderground v.1.15,2013-09-11 23:35:00,
2013-09-11 19:45:00,73.6,70.2,30.06,SSW,202,0.0,0.0,89,0.00,,,0.00,0,Wunderground v.1.15,2013-09-11 23:45:00,
2013-09-11 19:55:00,73.4,70.0,30.06,South,186,0.0,0.0,89,0.00,,,0.00,0,Wunderground v.1.15,2013-09-11 23:55:00,
2013-09-11 20:05:00,73.3,69.9,30.06,SW,232,0.0,0.0,89,0.00,,,0.00,0,Wunderground v.1.15,2013-09-12 00:05:00,
2013-09-11 20:15:00,73.1,69.7,30.06,South,169,0.0,3.0,89,0.00,,,0.00,0,Wunderground v.1.15,2013-09-12 00:15:00,
2013-09-11 20:20:00,73.0,69.6,30.06,South,175,0.0,0.0,89,0.00,,,0.00,0,Wunderground v.1.15,2013-09-12 00:20:00,
2013-09-11 20:30:00,72.9,69.8,30.06,SSW,193,0.0,0.0,90,0.00,,,0.00,0,Wunderground v.1.15,2013-09-12 00:30:00,
2013-09-11 20:39:00,72.7,69.6,30.06,South,187,0.0,0.0,90,0.00,,,0.00,0,Wunderground v.1.15,2013-09-12 00:39:00,
2013-09-11 20:45:00,72.7,69.6,30.06,SSW,201,0.0,0.0,90,0.00,,,0.00,0,Wunderground v.1.15,2013-09-12 00:45:00,
2013-09-11 20:55:00,72.6,69.5,30.07,West,263,0.0,0.0,90,0.00,,,0.00,0,Wunderground v.1.15,2013-09-12 00:55:00,
2013-09-11 21:00:00,72.6,69.5,30.06,South,190,0.0,0.0,90,0.00,,,0.00,0,Wunderground v.1.15,2013-09-12 01:00:00,
2013-09-11 21:05:00,72.6,69.5,30.06,SSE,168,0.0,0.0,90,0.00,,,0.00,0,Wunderground v.1.15,2013-09-12 01:05:00,
2013-09-11 21:15:00,72.6,69.5,30.06,SSE,157,1.0,1.0,90,0.00,,,0.00,0,Wunderground v.1.15,2013-09-12 01:15:00,
2013-09-11 21:20:00,72.7,69.6,30.06,SSW,211,0.0,0.0,90,0.00,,,0.00,0,Wunderground v.1.15,2013-09-12 01:20:00,
2013-09-11 21:29:00,72.6,69.5,30.06,West,279,0.0,0.0,90,0.00,,,0.00,0,Wunderground v.1.15,2013-09-12 01:29:00,
2013-09-11 21:35:00,72.7,69.6,30.06,South,172,0.0,0.0,90,0.00,,,0.00,0,Wunderground v.1.15,2013-09-12 01:35:00,
2013-09-11 21:40:00,72.7,69.6,30.06,South,172,0.0,0.0,90,0.00,,,0.00,0,Wunderground v.1.15,2013-09-12 01:40:00,
2013-09-11 21:45:00,72.7,69.6,30.06,South,190,0.0,0.0,90,0.00,,,0.00,0,Wunderground v.1.15,2013-09-12 01:45:00,
2013-09-11 21:55:00,72.8,69.7,30.05,SSE,161,0.0,3.0,90,0.00,,,0.00,0,Wunderground v.1.15,2013-09-12 01:55:00,
2013-09-11 22:05:00,72.8,69.7,30.06,ESE,116,0.0,0.0,90,0.00,,,0.00,0,Wunderground v.1.15,2013-09-12 02:05:00,
2013-09-11 22:10:00,72.8,69.7,30.05,SSW,196,0.0,1.0,90,0.00,,,0.00,0,Wunderground v.1.15,2013-09-12 02:10:00,
2013-09-11 22:20:00,72.8,69.7,30.05,SW,230,1.0,1.0,90,0.00,,,0.00,0,Wunderground v.1.15,2013-09-12 02:20:00,
2013-09-11 22:25:00,72.8,69.7,30.05,South,188,0.0,1.0,90,0.00,,,0.00,0,Wunderground v.1.15,2013-09-12 02:25:00,
2013-09-11 22:30:00,72.8,69.7,30.05,WSW,245,0.0,0.0,90,0.00,,,0.00,0,Wunderground v.1.15,2013-09-12 02:30:00,
2013-09-11 22:40:00,72.8,69.7,30.05,SW,226,0.0,1.0,90,0.00,,,0.00,0,Wunderground v.1.15,2013-09-12 02:40:00,
2013-09-11 22:45:00,72.8,69.7,30.05,South,183,0.0,1.0,90,0.00,,,0.00,0,Wunderground v.1.15,2013-09-12 02:45:00,
2013-09-11 22:55:00,72.8,69.7,30.05,WSW,253,0.0,1.0,90,0.00,,,0.00,0,Wunderground v.1.15,2013-09-12 02:55:00,
2013-09-11 23:05:00,72.8,69.7,30.05,SSE,168,0.0,0.0,90,0.00,,,0.00,0,Wunderground v.1.15,2013-09-12 03:05:00,
2013-09-11 23:10:00,72.7,69.6,30.05,South,179,0.0,0.0,90,0.00,,,0.00,0,Wunderground v.1.15,2013-09-12 03:10:00,
2013-09-11 23:20:00,72.6,69.5,30.04,SSW,202,0.0,3.0,90,0.00,,,0.00,0,Wunderground v.1.15,2013-09-12 03:20:00,
2013-09-11 23:25:00,72.6,69.5,30.04,South,176,0.0,3.0,90,0.00,,,0.00,0,Wunderground v.1.15,2013-09-12 03:25:00,
2013-09-11 23:35:00,72.5,69.4,30.03,South,189,0.0,0.0,90,0.00,,,0.00,0,Wunderground v.1.15,2013-09-12 03:35:00,
2013-09-11 23:45:00,72.4,69.3,30.03,West,260,1.0,1.0,90,0.00,,,0.00,0,Wunderground v.1.15,2013-09-12 03:45:00,
2013-09-11 23:55:00,72.3,69.2,30.03,South,175,1.0,2.0,90,0.00,,,0.00,0,Wunderground v.1.15,2013-09-12 03:55:00,